Temp
70 75 73 74 74 73 73 73 73 73 73 73 72 72 72 72 72 72 72 72 73 74 74 74 74 73 73 74 74 74 74 74 74 74 75 76 77 78 77 77 75 84 76
74 76 72 73 73 73 73 73 72 72 72 72 71 71 71 71 71 71 70 70 71 72 72 72 72 72 72 72 71 71 71 71 73 73 74 76 75 76 77 76 76 82 76
69 75 75 72 72 72 72 71 71 71 71 70 70 70 70 69 69 69 68 68 69 70 71 71 71 70 70 70 70 70 70 70 70 71 73 81 81 75 76 76 75 76 75
70 73 74 71 71 71 70 70 70 69 69 68 68 68 68 68 68 67 67 66 67 68 68 68 68 67 67 67 67 67 68 69 69 70 80 80 80 76 75 76 76 76 76
67 72 71 69 70 70 69 69 68 67 66 66 65 66 66 66 66 66 65 65 65 65 66 66 65 65 64 64 65 65 65 66 68 73 73 75 79 78 74 75 76 75 75
67 70 69 68 69 68 68 67 66 65 64 64 63 63 64 64 64 63 63 63 63 63 63 63 63 62 61 61 62 63 63 64 67 76 76 74 73 73 73 74 74 74 74
64 65 68 66 67 66 65 64 63 62 62 62 61 61 61 61 61 61 61 61 61 60 61 60 60 60 59 59 59 60 60 61 64 71 74 75 69 71 73 74 74 73 73
62 62 63 64 65 65 63 61 61 60 60 59 59 58 58 58 58 58 58 58 59 58 58 58 58 57 57 57 57 57 58 58 60 59 63 70 65 68 71 73 73 73 73
62 60 60 62 62 62 61 60 59 58 57 56 56 56 55 54 55 55 56 56 57 56 56 55 55 55 55 54 55 55 55 55 62 63 59 59 63 65 68 70 70 71 72
60 60 59 60 62 61 60 58 57 56 54 54 54 53 52 52 53 53 54 54 54 53 53 53 53 53 52 52 52 53 53 55 60 61 62 60 60 63 66 67 67 68 70
59 58 58 59 59 61 60 57 55 54 52 52 52 51 52 52 53 52 51 51 51 52 51 51 51 50 50 51 51 51 52 57 58 60 61 57 58 61 63 65 66 67 68
56 58 58 57 57 58 59 56 54 54 53 51 51 50 52 50 50 51 50 49 49 50 49 49 49 49 50 53 54 53 55 54 57 57 60 54 56 59 61 63 64 65 67
55 56 56 55 55 56 56 55 55 53 52 51 49 49 50 50 50 50 50 50 50 49 50 50 50 51 49 50 51 52 52 53 54 56 56 52 53 56 59 61 63 65 66
54 54 55 55 54 53 56 54 53 52 51 50 49 48 48 48 47 47 47 48 48 49 48 49 49 48 48 48 49 49 50 51 52 53 54 50 52 54 58 60 62 63 65
53 52 52 53 52 52 52 53 52 50 50 49 49 48 48 47 45 46 46 47 47 47 47 46 47 47 48 48 49 49 48 50 50 52 53 50 51 53 55 58 61 62 65
52 52 52 52 51 52 51 50 50 50 50 49 48 47 46 46 45 45 45 45 46 46 46 45 45 45 47 47 48 48 48 49 50 50 53 55 50 51 53 55 57 59 61
52 52 52 52 51 50 50 51 50 50 49 48 48 46 45 45 45 44 44 44 44 45 44 44 44 45 45 47 47 47 48 48 49 50 52 54 54 51 51 52 53 55 57
52 50 50 51 51 50 49 50 50 49 49 48 48 47 45 45 44 44 43 43 43 42 44 42 42 42 43 45 44 47 48 48 48 50 52 52 53 54 52 51 50 52 53
50 50 50 49 49 49 49 50 49 48 48 48 47 47 45 45 44 44 43 43 43 42 43 41 40 41 39 41 43 46 47 48 50 51 50 50 51 52 52 50 49 50 51
50 50 50 49 48 49 50 50 50 49 48 48 47 46 45 45 43 43 43 42 42 42 41 40 39 39 40 41 42 44 47 50 51 48 49 50 51 50 51 51 52 54 50
49 49 48 47 47 48 49 47 48 46 47 46 47 45 45 44 43 43 43 42 42 40 40 39 39 36 40 39 40 42 46 47 47 47 48 49 49 50 49 50 51 52 54
47 48 47 47 47 47 48 48 47 46 47 45 46 45 45 44 43 43 42 41 41 38 40 39 38 33 37 38 32 38 37 45 46 47 47 47 46 48 48 49 49 50 52
46 46 47 46 46 47 46 48 47 47 46 44 44 44 44 44 43 42 42 41 40 38 38 38 36 32 30 38 36 32 30 32 36 45 44 45 45 45 47 48 48 49 50
46 46 47 45 46 47 46 45 43 42 40 42 42 44 44 44 43 43 41 41 40 39 38 38 36 32 31 30 35 39 36 34 29 31 41 43 44 45 45 47 45 45 46
46 46 46 45 45 45 45 44 43 41 42 42 42 42 42 43 43 42 41 40 40 39 39 38 34 31 31 29 29 31 35 37 35 28 29 36 42 44 46 46 45 43 44
46 46 46 44 43 44 44 43 41 40 39 40 40 40 41 43 43 42 41 41 40 39 37 34 32 31 31 30 32 33 31 28 29 27 27 32 35 41 44 47 47 43 43
MSLP
1023.88 1023.29 1023.00 1022.62 1022.40 1022.23 1021.93 1021.70 1021.51 1021.37 1021.28 1021.16 1020.95 1020.72 1020.38 1020.04 1019.73 1019.30 1019.14 1018.86 1018.46 1018.17 1017.87 1017.67 1017.46 1017.34 1017.06 1016.78 1016.50 1016.30 1016.10 1015.87 1015.75 1015.66 1015.46 1015.21 1015.10 1015.00 1015.01 1015.03 1014.98 1014.69 1015.07
1024.46 1023.95 1023.52 1023.22 1022.93 1022.71 1022.56 1022.29 1022.12 1022.01 1021.88 1021.73 1021.47 1021.26 1021.05 1020.83 1020.48 1020.14 1019.91 1019.59 1019.16 1018.79 1018.48 1018.18 1018.00 1017.78 1017.52 1017.29 1017.01 1016.69 1016.41 1016.21 1015.87 1015.67 1015.48 1015.19 1015.06 1014.97 1014.90 1015.02 1015.00 1014.60 1015.15
1025.06 1024.35 1024.01 1023.78 1023.46 1023.33 1023.15 1022.93 1022.78 1022.71 1022.54 1022.33 1022.15 1021.94 1021.64 1021.40 1021.08 1020.78 1020.63 1020.33 1019.96 1019.56 1019.15 1018.76 1018.52 1018.26 1017.93 1017.68 1017.38 1017.01 1016.67 1016.44 1016.08 1015.72 1015.41 1014.86 1014.73 1014.95 1014.80 1014.91 1014.94 1015.02 1015.12
1025.26 1024.85 1024.60 1024.34 1023.98 1023.87 1023.66 1023.57 1023.49 1023.36 1023.27 1023.06 1022.87 1022.61 1022.35 1022.04 1021.69 1021.43 1021.26 1020.92 1020.51 1020.11 1019.71 1019.36 1019.18 1018.90 1018.59 1018.19 1017.73 1017.34 1016.87 1016.45 1016.13 1015.75 1014.75 1014.83 1014.67 1014.73 1014.87 1014.77 1014.89 1014.88 1015.04
1025.76 1025.40 1025.25 1024.86 1024.46 1024.37 1024.29 1024.23 1024.09 1023.94 1023.80 1023.70 1023.60 1023.26 1022.97 1022.65 1022.26 1022.01 1021.67 1021.48 1021.16 1020.67 1020.31 1020.11 1019.83 1019.46 1019.09 1018.77 1018.37 1017.81 1017.28 1016.77 1016.12 1015.39 1015.31 1015.02 1014.67 1014.53 1014.72 1014.77 1014.64 1014.77 1014.88
1026.29 1026.00 1025.78 1025.38 1024.96 1024.91 1024.88 1024.86 1024.71 1024.61 1024.61 1024.33 1024.13 1023.90 1023.51 1023.27 1022.82 1022.58 1022.20 1021.83 1021.44 1021.10 1020.71 1020.45 1020.08 1019.71 1019.49 1019.07 1018.63 1018.13 1017.65 1017.09 1016.22 1015.46 1015.12 1014.97 1014.86 1014.77 1014.71 1014.58 1014.64 1014.60 1014.67
1026.72 1026.67 1026.22 1025.93 1025.44 1025.46 1025.45 1025.47 1025.35 1025.15 1025.11 1024.98 1024.86 1024.59 1024.34 1023.90 1023.55 1023.21 1022.71 1022.31 1021.89 1021.55 1021.20 1020.90 1020.42 1020.14 1019.85 1019.52 1019.09 1018.53 1017.99 1017.51 1016.88 1016.01 1015.29 1015.08 1015.20 1014.80 1014.48 1014.32 1014.28 1014.39 1014.44
1027.17 1027.05 1026.87 1026.47 1026.13 1026.01 1026.02 1026.00 1025.89 1025.75 1025.63 1025.60 1025.43 1025.17 1024.86 1024.37 1024.00 1023.59 1023.33 1022.90 1022.43 1022.21 1021.69 1021.43 1020.99 1020.39 1020.04 1019.79 1019.27 1018.85 1018.33 1017.86 1017.35 1016.85 1016.30 1015.44 1015.66 1015.09 1014.49 1014.04 1014.06 1014.08 1014.19
1027.60 1027.35 1027.22 1027.00 1026.82 1026.54 1026.50 1026.51 1026.47 1026.35 1026.26 1026.04 1025.88 1025.67 1025.49 1025.12 1024.90 1024.37 1023.92 1023.43 1022.90 1022.58 1022.08 1021.53 1021.25 1020.89 1020.27 1020.05 1019.66 1019.08 1018.58 1018.13 1017.33 1016.81 1016.65 1016.33 1015.98 1015.52 1014.90 1014.52 1014.20 1013.94 1013.85
1027.89 1027.76 1027.63 1027.48 1027.21 1026.97 1027.09 1027.13 1027.05 1026.90 1026.85 1026.81 1026.51 1026.19 1025.97 1025.56 1025.06 1024.83 1024.34 1023.93 1023.47 1022.95 1022.50 1022.21 1021.62 1021.09 1020.58 1020.08 1019.54 1019.30 1018.79 1018.02 1017.51 1017.10 1016.66 1016.55 1016.32 1015.71 1015.18 1014.78 1014.57 1014.26 1013.86
1028.22 1028.29 1028.25 1027.94 1027.69 1027.21 1027.31 1027.64 1027.58 1027.48 1027.37 1027.10 1026.83 1026.50 1025.96 1025.75 1025.42 1024.95 1024.64 1024.23 1023.89 1023.34 1022.91 1022.44 1022.02 1021.54 1020.92 1020.19 1019.71 1019.28 1018.77 1018.07 1017.80 1017.15 1016.85 1016.89 1016.51 1015.86 1015.34 1014.90 1014.62 1014.36 1013.99
1028.59 1028.57 1028.59 1028.45 1028.22 1027.86 1027.79 1027.96 1027.99 1027.83 1027.81 1027.68 1027.32 1026.86 1026.56 1026.43 1026.09 1025.65 1025.30 1024.81 1024.36 1023.75 1023.23 1022.94 1022.38 1021.79 1021.14 1020.61 1019.65 1019.18 1018.72 1018.47 1017.85 1017.45 1016.94 1017.18 1016.69 1016.07 1015.44 1014.99 1014.71 1014.38 1013.98
1029.08 1029.13 1029.12 1029.03 1028.85 1028.32 1028.12 1028.22 1028.14 1028.21 1028.11 1027.91 1027.75 1027.50 1027.18 1026.79 1026.41 1025.98 1025.56 1025.17 1024.54 1023.77 1023.21 1022.48 1022.18 1021.90 1021.63 1021.06 1020.40 1019.75 1019.20 1018.58 1018.02 1017.53 1017.07 1017.30 1016.87 1016.12 1015.48 1015.02 1014.52 1014.23 1013.95
1029.46 1029.60 1029.62 1029.50 1029.19 1028.99 1028.60 1028.58 1028.63 1028.45 1028.49 1028.35 1028.29 1028.13 1027.59 1027.30 1026.95 1026.53 1025.98 1025.55 1024.98 1024.38 1023.83 1023.19 1022.45 1022.01 1021.79 1021.19 1020.73 1020.15 1019.51 1018.85 1018.17 1017.70 1017.12 1017.18 1016.76 1016.18 1015.33 1014.85 1014.41 1014.05 1013.80
1029.73 1030.19 1030.23 1030.06 1029.77 1029.42 1029.05 1029.04 1029.04 1028.99 1029.01 1028.87 1028.71 1028.70 1028.30 1027.76 1027.53 1027.11 1026.62 1026.04 1025.57 1024.88 1024.16 1023.55 1022.92 1022.29 1021.55 1021.09 1020.42 1020.12 1019.48 1018.82 1018.21 1017.62 1017.17 1016.98 1016.70 1016.16 1015.59 1014.83 1014.20 1013.81 1013.53
1030.30 1030.56 1030.73 1030.47 1030.20 1029.75 1029.60 1029.51 1029.32 1029.32 1029.24 1029.17 1029.19 1029.03 1028.52 1028.13 1027.78 1027.26 1026.77 1026.43 1026.03 1025.49 1024.91 1024.28 1023.55 1022.62 1021.68 1021.22 1020.27 1019.98 1019.35 1018.81 1018.28 1017.78 1017.13 1016.51 1016.44 1016.14 1015.76 1015.14 1014.56 1014.05 1013.50
1030.74 1030.99 1030.79 1030.54 1030.45 1030.15 1029.88 1029.61 1029.65 1029.61 1029.52 1029.53 1029.38 1029.18 1028.71 1028.38 1028.10 1027.60 1027.05 1026.52 1026.13 1025.63 1025.02 1024.52 1023.84 1023.06 1022.09 1021.18 1020.45 1019.77 1019.08 1018.62 1018.26 1017.83 1017.17 1016.59 1016.03 1015.81 1015.71 1015.41 1015.17 1014.63 1013.83
1031.01 1031.31 1031.27 1030.96 1030.61 1030.37 1030.16 1030.05 1029.90 1029.98 1029.85 1029.77 1029.55 1029.23 1028.98 1028.60 1028.07 1027.55 1027.07 1026.68 1026.44 1026.11 1025.30 1024.74 1024.23 1023.42 1022.46 1021.54 1020.76 1019.75 1019.04 1018.61 1018.28 1017.73 1017.03 1016.67 1016.26 1015.87 1015.46 1015.24 1015.03 1014.56 1014.31
1031.36 1031.50 1031.29 1031.07 1030.70 1030.61 1030.51 1030.25 1030.15 1030.34 1030.08 1030.02 1029.62 1029.27 1029.17 1028.72 1028.38 1027.91 1027.47 1027.18 1026.67 1026.05 1025.53 1025.16 1024.56 1023.92 1023.25 1022.15 1021.01 1019.84 1018.94 1018.41 1018.17 1017.63 1017.15 1016.71 1016.45 1016.14 1015.67 1015.18 1014.84 1014.33 1013.86
1031.58 1031.51 1031.28 1031.08 1031.12 1030.99 1030.51 1030.19 1030.12 1030.09 1030.02 1029.97 1029.62 1029.44 1029.10 1028.78 1028.63 1028.21 1027.70 1027.35 1026.83 1026.19 1025.67 1025.42 1024.88 1024.44 1023.46 1022.53 1021.22 1019.72 1018.79 1018.09 1018.05 1017.74 1017.15 1016.68 1016.39 1016.13 1015.64 1015.28 1014.78 1013.97 1013.79
1031.57 1031.43 1031.35 1031.29 1031.65 1031.33 1030.62 1030.24 1030.03 1029.99 1030.12 1029.99 1029.72 1029.55 1029.23 1028.96 1028.58 1028.09 1027.76 1027.35 1027.05 1026.69 1026.19 1025.75 1025.13 1024.57 1023.39 1022.96 1021.44 1019.75 1018.56 1018.28 1018.00 1017.88 1017.41 1016.84 1016.49 1015.96 1015.58 1015.16 1014.68 1014.32 1013.56
1031.47 1031.39 1031.54 1031.60 1031.92 1031.61 1031.00 1030.72 1030.56 1030.42 1030.31 1030.34 1030.00 1029.70 1029.46 1029.21 1028.90 1028.42 1028.14 1027.63 1027.32 1027.19 1026.37 1025.92 1025.45 1025.00 1024.13 1023.40 1022.70 1020.55 1018.85 1017.75 1017.78 1017.62 1017.58 1016.99 1016.58 1016.06 1015.33 1014.93 1014.63 1014.29 1013.73
1031.38 1031.49 1031.71 1031.89 1031.98 1031.80 1031.46 1030.92 1030.67 1030.53 1030.35 1030.12 1029.78 1029.59 1029.50 1029.37 1029.01 1028.59 1028.31 1027.88 1027.55 1027.28 1026.61 1026.13 1025.84 1025.55 1024.73 1023.70 1023.34 1022.73 1020.98 1019.88 1018.93 1017.66 1017.46 1017.23 1016.73 1016.11 1015.44 1014.93 1014.44 1013.99 1013.53
1031.42 1031.69 1031.86 1032.03 1031.96 1031.92 1031.73 1031.26 1031.20 1030.90 1030.52 1030.43 1030.19 1029.90 1029.62 1029.36 1028.91 1028.62 1028.36 1028.04 1027.57 1027.19 1026.71 1026.27 1026.04 1025.86 1025.33 1024.38 1023.69 1023.02 1022.74 1021.92 1020.51 1018.26 1017.59 1017.10 1016.82 1015.97 1015.38 1014.80 1014.68 1014.19 1013.79
1031.40 1031.66 1031.93 1032.12 1032.17 1032.20 1031.94 1031.88 1031.57 1031.20 1031.05 1030.82 1030.47 1030.03 1029.53 1029.07 1028.71 1028.51 1028.24 1028.02 1027.54 1027.23 1026.88 1026.43 1026.24 1026.02 1025.56 1025.02 1024.28 1023.48 1022.71 1021.62 1021.18 1020.65 1017.65 1017.06 1016.50 1015.88 1015.24 1014.71 1014.52 1014.23 1013.93
1031.37 1031.67 1031.96 1032.22 1032.32 1032.30 1032.22 1032.18 1031.96 1031.63 1031.25 1030.87 1030.50 1030.03 1029.57 1029.09 1028.68 1028.55 1028.35 1028.00 1027.62 1027.29 1026.98 1026.84 1026.55 1026.00 1025.51 1025.04 1024.31 1023.56 1022.99 1022.42 1021.45 1021.06 1019.90 1018.06 1016.83 1015.55 1015.01 1014.47 1014.06 1014.16 1014.06
Wind_Speed
14 15 20 21 21 21 22 22 22 22 24 24 24 24 23 23 22 22 24 24 24 23 23 23 22 24 24 20 17 15 13 11 10 9 8 6 5 5 5 4 5 7 7
12 15 18 20 21 22 23 23 24 24 25 24 24 24 24 24 23 23 23 24 23 22 22 21 20 20 20 19 18 18 18 19 12 9 10 8 5 4 4 4 6 5 8
13 14 18 18 21 23 23 24 24 24 25 25 25 25 24 24 23 22 23 23 23 21 21 20 20 20 21 18 16 15 15 16 15 17 8 6 7 5 6 6 7 6 9
12 14 16 20 20 23 23 24 24 24 25 25 25 24 24 23 22 22 22 22 21 21 20 20 21 21 20 19 19 18 18 14 14 12 6 6 6 5 8 8 8 8 10
13 15 17 20 20 22 22 22 23 24 24 24 24 24 23 22 21 21 20 21 20 20 20 20 20 20 20 20 20 19 19 19 15 8 4 7 6 4 8 10 10 9 10
13 14 17 20 20 21 22 22 23 24 24 23 23 23 23 22 21 21 21 21 20 20 19 19 18 18 19 18 18 18 19 19 17 9 8 5 6 7 9 9 9 10 9
13 12 15 19 19 21 22 23 23 23 23 23 23 23 23 22 21 21 20 20 20 20 20 20 19 19 19 19 19 19 18 18 12 10 8 7 9 13 11 8 7 9 11
12 12 13 17 19 20 21 22 22 23 23 23 24 23 22 20 20 19 20 20 20 20 20 20 20 19 18 18 18 18 17 16 9 9 10 6 16 17 18 8 7 7 9
13 12 12 12 13 17 19 20 22 23 24 23 22 21 20 20 21 20 20 21 20 20 20 20 20 19 19 18 18 18 17 15 9 6 7 7 16 16 16 15 12 8 8
13 13 12 11 11 11 13 20 21 22 21 21 21 21 20 19 19 20 20 21 20 19 20 20 20 19 19 16 16 18 17 11 10 8 6 6 16 16 15 15 16 14 10
11 12 11 11 10 10 11 13 15 17 18 19 18 20 15 12 14 16 17 19 19 20 19 20 20 20 20 15 15 17 13 7 9 6 5 12 16 16 16 15 13 14 13
12 12 10 11 11 9 8 9 10 10 10 12 14 14 11 12 11 12 14 18 18 20 18 20 19 18 17 11 9 12 7 10 7 7 5 15 17 16 16 15 15 14 14
10 9 11 9 9 9 8 6 5 6 7 8 15 14 12 9 9 9 8 9 10 15 10 12 11 10 13 10 10 10 11 9 6 7 8 14 17 16 15 16 15 14 13
10 11 10 10 9 9 6 6 7 8 8 8 11 14 10 8 10 10 8 10 10 9 13 12 8 11 12 12 12 13 12 9 6 6 8 13 15 15 14 14 14 15 14
11 11 10 9 7 6 8 6 7 8 8 10 10 12 10 10 10 9 9 9 9 10 10 11 11 11 11 13 12 13 13 12 10 6 6 12 14 14 14 13 13 14 14
8 8 8 8 8 8 8 9 7 7 9 9 9 10 12 9 9 9 9 10 10 10 11 11 12 11 10 12 13 14 13 11 10 8 6 7 11 13 14 13 12 14 15
9 8 7 7 9 9 8 7 7 8 8 8 8 11 12 11 11 11 9 9 10 9 13 11 11 10 11 11 14 13 12 11 8 8 7 7 7 7 15 12 13 15 15
8 7 8 8 9 9 8 7 6 7 7 7 8 8 12 13 13 10 9 10 11 9 11 11 10 10 11 12 12 11 9 8 7 7 8 7 6 8 11 15 17 16 14
6 6 8 9 11 9 7 6 7 7 7 7 7 8 12 13 14 11 10 10 12 9 10 10 10 11 11 12 13 12 8 6 3 9 9 8 7 10 8 14 16 18 14
5 7 9 9 10 8 5 4 5 6 6 7 8 9 11 11 13 11 9 11 11 9 10 11 11 10 9 12 12 12 7 3 1 10 10 7 8 11 10 12 10 10 15
6 7 9 9 9 7 6 6 6 7 7 7 8 10 11 11 12 11 10 12 12 10 12 12 10 12 9 12 10 11 5 4 6 10 10 8 12 11 11 10 7 7 9
6 7 7 8 6 6 5 5 4 6 4 6 7 9 10 11 12 12 12 12 13 10 12 12 12 10 9 10 10 10 7 3 8 8 11 10 13 11 11 11 11 10 9
5 7 6 6 5 6 7 5 5 4 4 6 8 8 9 11 11 12 13 12 12 9 9 11 11 11 9 9 12 6 7 7 15 4 8 12 15 11 11 11 10 9 7
5 5 5 4 5 5 7 7 8 6 7 7 7 7 8 10 11 11 12 12 12 9 11 10 9 9 8 9 8 8 7 8 6 10 7 10 13 12 12 10 8 9 8
4 4 3 3 5 5 7 7 6 7 6 6 6 9 9 10 11 11 12 12 12 10 11 11 10 9 7 6 7 8 10 8 7 7 14 14 12 11 12 9 8 7 4
5 4 2 3 5 6 7 7 8 9 9 8 8 8 8 8 9 10 12 12 12 11 12 10 9 9 8 7 7 9 8 8 10 6 11 14 16 15 12 9 6 6 4
Wind_Direction
20 37 42 48 52 51 51 50 50 50 50 48 46 44 41 38 35 35 32 28 29 27 27 29 29 28 24 17 12 1 346 341 343 340 335 327 324 323 316 274 215 192 154
39 42 46 48 52 52 50 49 49 47 46 44 43 40 38 35 33 33 30 27 24 20 19 20 19 21 20 16 16 14 11 5 338 334 331 301 292 298 277 240 237 196 174
39 43 48 52 52 54 52 51 48 46 43 41 39 37 35 33 32 31 29 24 21 19 17 16 15 15 16 10 10 8 8 4 355 345 318 286 291 286 257 239 226 223 198
46 47 48 47 57 57 50 48 47 45 41 39 35 32 30 28 28 28 26 23 20 18 17 15 13 9 8 7 7 4 360 348 347 342 300 305 282 290 281 246 238 220 208
50 51 49 50 57 54 52 50 48 44 40 36 31 28 26 23 23 26 24 22 19 18 14 11 7 8 8 7 1 1 358 350 338 315 343 319 299 277 287 270 234 229 210
52 45 51 51 57 54 53 49 46 43 38 34 31 26 24 23 22 24 21 18 16 16 13 12 8 6 4 1 360 359 355 350 342 340 335 312 307 319 288 284 269 239 220
52 49 49 51 56 55 54 49 46 43 38 34 28 26 22 23 20 19 16 15 15 13 10 10 6 4 3 1 359 359 356 350 348 337 340 349 15 350 285 266 277 258 232
52 49 49 48 49 60 55 49 47 43 38 32 28 25 23 22 20 16 15 13 13 11 10 7 4 2 4 358 357 356 354 352 347 336 338 358 0 356 353 295 273 261 263
53 49 46 48 52 56 53 50 45 42 37 32 27 25 24 21 21 17 14 13 12 13 9 8 5 360 360 356 354 354 351 348 337 340 325 339 344 343 344 356 8 358 290
52 47 42 43 49 60 52 45 46 43 38 32 28 25 23 21 18 16 11 14 8 15 10 7 4 0 356 354 354 351 347 338 348 334 335 338 325 326 328 334 345 350 347
53 47 44 43 44 52 53 47 41 40 35 29 25 23 19 16 11 12 8 9 5 10 8 7 4 360 354 352 353 351 342 347 334 336 323 339 332 321 318 318 325 330 335
47 45 39 40 42 51 51 47 44 39 36 31 25 20 17 13 9 3 1 1 360 4 1 1 1 358 356 347 347 347 347 338 324 322 314 333 328 324 314 311 308 311 321
48 44 35 37 42 47 52 42 39 37 31 28 28 20 16 8 6 7 0 358 354 359 358 358 355 359 352 346 344 340 337 332 327 318 321 325 322 320 317 308 302 294 296
56 44 38 36 42 47 51 47 45 39 32 31 27 18 14 13 9 6 2 358 356 356 354 353 349 347 343 344 341 336 334 329 327 317 315 323 322 323 319 309 298 287 285
62 50 41 37 42 47 52 52 48 42 37 32 26 23 16 17 10 2 359 356 354 354 355 350 347 344 338 342 338 337 334 330 330 326 315 322 328 331 329 320 311 296 286
66 54 44 38 39 47 52 55 49 44 39 32 27 22 22 15 9 3 2 359 355 356 352 349 346 338 340 337 336 336 331 328 326 329 330 326 327 335 347 338 330 319 318
64 47 32 39 41 46 50 54 50 42 37 28 22 24 21 17 10 7 5 1 356 347 352 351 350 343 339 335 341 333 330 331 328 333 326 338 330 330 339 340 331 321 309
66 47 43 38 45 49 51 49 50 41 33 22 19 18 17 15 11 9 6 5 358 351 353 355 356 342 335 338 336 329 326 322 333 349 352 345 349 341 331 337 330 325 315
67 45 42 39 38 35 47 57 52 40 31 20 20 19 15 16 11 7 7 3 355 355 358 354 354 347 344 334 328 329 326 321 335 346 351 348 351 346 335 332 325 319 318
77 52 43 44 34 25 33 45 41 35 27 21 21 19 17 17 14 11 5 0 359 351 359 355 351 354 336 342 326 329 325 349 57 351 358 344 346 340 340 330 324 315 314
69 52 45 46 30 13 24 18 17 13 14 18 16 18 17 16 17 13 6 3 0 357 355 354 350 347 348 356 330 337 329 287 320 339 354 354 346 340 336 332 319 319 308
73 56 55 50 20 14 22 21 10 3 5 2 8 15 17 14 14 11 7 2 0 355 349 354 351 347 345 2 341 331 346 315 346 329 342 347 345 335 334 335 319 312 300
81 59 57 39 355 15 15 18 16 9 358 3 8 9 10 8 9 9 6 2 357 359 344 348 354 350 342 350 352 1 338 346 324 13 330 338 340 335 333 332 321 323 313
95 76 61 11 357 27 19 24 18 5 358 3 359 358 358 3 5 6 3 0 358 352 346 344 351 343 343 343 342 0 339 312 325 323 337 332 335 333 333 335 328 321 324
103 85 40 328 30 30 32 23 6 6 1 352 353 351 359 359 359 3 1 357 358 353 348 341 347 342 340 325 335 335 335 326 288 315 312 329 328 334 335 325 323 316 345
114 100 40 45 59 36 27 19 11 7 358 352 355 352 355 352 354 3 358 358 357 353 350 344 336 333 333 329 325 334 337 323 313 319 305 321 322 330 329 337 340 334 347